FENGYUN 1C DEB

Satellite information

Favourite Embed

Satellite Type and Status

DEBRISIN ORBIT

Key statistics

Satellite FENGYUN 1C DEB at a glance.

Uptime

9675

Days in orbit

Revolutions

≈ 15.0

Per day

Orbit

SSO

Sun Synchronous Orbit

Inclination

97.0

Latest

Satellite identification and parameters

Extended collection of information and parameters for FENGYUN 1C DEB.

Object identification

Identified? True

Debris? True

Object name: FENGYUN 1C DEB

International designator: 1999-025FY

Object number (NORAD): 29878

Object ID (CCSDS): 29878

Country: PEOPLES REPUBLIC OF CHINA (PRC)

Current information (Y/N): Y

RCS size: SMALL

Orbital parameters

Period: 96.059 minutes

Inclination: 96.9506 deg

SMA: 6947.871 km

Apoapsis: 600.137 km

Periapsis: 539.335 km

RAAN: 123.0048 deg

Eccentricy: 0.0043756

Argument of periapsis: 305.7821 deg

Mean anomaly: 53.934 deg

Mean motion: 14.99081265 rev/day

Mean motion (dot): 0.0006549 rev/day2

B* drag term: 0.0052486 1/REarth

Two-line elements (TLE)

Creation date: Nov. 2, 2025, 5:26 p.m.

Reference frame: TEME

Reference center: EARTH

Epoch: Nov. 2, 2025, 10:35 a.m. UTC

TLE line 0: 0 FENGYUN 1C DEB

TLE line 1: 1 29878U 99025FY 25306.44125350 .00065490 00000-0 52486-2 0 9990

TLE line 2: 2 29878 96.9506 123.0048 0043756 305.7821 53.9340 14.99081265980422

Live tracking on map

Real-time ground track for satellite FENGYUN 1C DEB.

In-orbit conjunctions

A list of the most updated potential collisions computed for object FENGYUN 1C DEB.

Target Orbit TCA Probability of collision Miss distance Type
TIROS 1 LEO 2025-07-14 21:27:16 0.0007557516 256.0 (m) PAYLOAD
CZ-6A DEB LEO 2024-11-03 14:41:38 0.0006153956 120.0 (m) DEBRIS
CZ-6A DEB LEO 2024-11-02 10:02:00 0.001860229 35.0 (m) DEBRIS

Associated space launch

Chinese polar orbiting meteorological satellite

FENGYUN 1C DEB was lifted into orbit during the mission ‘Long March 4B | Feng Yun 1C’, on board a Long March 4B space rocket.

The launch took place on May 10, 1999, 1:33 a.m. from Launch Complex 7.

For more information about the launch, click the button.

Launch to space Long March 4B | Feng Yun 1C
Long March 4B | Feng Yun 1C

Agency: N/A

Status: Launch Successful

Launch date: May 10, 1999, 1:33 a.m. UTC

Rocket: Long March 4B

Launch pad: Launch Complex 7

Location: Taiyuan Satellite Launch Center, People's Republic of China

...

Latest news about this satellite

There are no fresh news available about this satellite. Check back as we update our databases every day.


Newsletter sign-up

Weekly statistics, charts and insights to help you stay on top of the space industry.